Location: Dal�� Lhota
(48.7500°N, 14.0167°E)
Time: 00:47:14
(UTC+00:00)

COSMO-SKYMED 1 - Pass Details

Date: 24 September 2020
Orbit: 621 x 623 km, 97.9° (Epoch: 29 October)

Event Time Altitude Azimuth Distance (km) Brightness Sun altitude
Rises 17:42:30 0° 9° (N) 2,917 6.0 -8.3°
Reaches altitude 10° 17:44:44 10° 5° (N) 2,005 5.2 -8.7°
Maximum altitude 17:48:59 54° 289° (WNW) 764 3.5 -9.4°
Drops below altitude 10° 17:53:12 10° 212° (SSW) 1,989 5.5 -10.1°
Sets 17:55:24 0° 208° (SSW) 2,890 6.2 -10.4°
